Lid_Strength_Index
0 -0 -0 -0 -0 0 0 -0 0 -1 0 -0 0 -0 -0 -0 -0 1 3 1 3 6 6 5 5 8 7 8 10 9 9 9 9 12 12 12 14 12 13 12 14 15 16 16 15 17 18 8 8 11 9 8 7 7
0 0 0 0 0 0 0 -0 0 0 -0 -0 -0 -0 -0 -0 -0 0 4 1 0 5 7 5 5 4 4 5 7 7 9 9 8 11 10 10 12 11 12 16 10 15 12 14 13 13 8 7 7 6 6 7 7 7
1 1 0 0 0 0 0 0 -0 0 1 1 1 -0 -1 -0 -0 1 2 2 3 7 8 8 8 5 3 3 4 9 7 6 7 6 9 10 13 10 14 13 12 10 8 11 11 9 8 7 7 6 6 6 6 5
1 1 1 1 1 0 0 0 0 -0 -0 -0 -0 -0 -0 -0 0 1 3 2 4 6 9 9 4 5 3 2 3 4 4 4 5 6 9 10 12 9 11 10 11 9 9 10 10 9 8 7 7 6 6 5 5 5
1 1 2 1 1 1 0 0 0 0 -1 -0 -0 -0 -0 0 0 2 2 2 2 5 9 9 6 4 3 2 3 3 4 5 7 9 9 11 9 9 9 10 11 9 9 11 12 8 8 8 6 6 6 6 5 5
1 2 2 2 1 1 0 1 1 0 0 -0 -0 -0 -0 -0 1 3 6 4 1 3 7 11 7 5 4 3 4 5 5 5 6 8 9 8 7 9 12 13 8 8 7 7 9 7 7 6 5 5 5 5 4 5
1 2 2 2 2 1 1 2 2 1 1 1 0 0 0 0 2 4 6 3 2 3 6 10 9 6 5 4 5 5 4 6 6 8 9 9 9 8 10 13 8 7 7 6 6 6 7 6 7 5 5 5 5 4
2 2 2 2 1 1 2 2 1 1 0 1 1 1 1 1 2 5 2 1 2 3 5 10 10 8 5 7 8 5 7 7 7 8 8 9 8 9 12 9 8 7 6 6 6 5 6 5 5 5 6 5 5 5
3 2 2 2 1 1 2 2 1 1 1 0 0 1 3 4 6 5 -0 0 2 4 8 9 11 12 6 7 7 7 7 10 7 9 9 10 11 12 10 9 8 7 7 7 6 6 6 6 6 6 5 6 6 5
2 2 2 2 1 2 2 2 1 1 1 1 2 4 7 5 0 1 4 7 7 7 6 9 7 10 7 8 9 9 8 10 12 10 8 11 12 9 7 7 6 6 5 5 7 8 7 7 6 6 6 5 5 5
2 2 2 2 1 2 1 2 1 1 1 4 5 6 4 1 4 5 10 11 10 11 8 9 8 10 6 10 10 8 11 10 14 11 11 12 12 9 7 6 6 6 5 5 5 5 6 7 5 6 5 5 4 4
2 2 2 2 1 1 2 1 1 5 5 5 5 4 4 5 8 10 11 9 11 12 8 9 8 7 7 6 9 9 12 11 14 9 12 13 10 7 7 6 5 6 5 5 5 5 5 5 6 6 6 5 5 5
2 2 2 2 2 1 2 1 1 1 2 3 4 6 9 10 14 13 14 12 12 9 8 8 9 7 7 6 9 10 13 13 9 14 13 11 8 7 7 5 5 5 5 5 5 5 5 5 5 5 6 5 5 5
1 1 1 1 1 1 1 1 1 2 4 8 9 12 13 11 11 10 10 10 7 7 8 8 10 9 7 9 9 12 11 10 14 15 15 10 8 7 6 5 5 6 5 5 5 5 5 6 6 5 5 5 5 4
0 1 1 2 1 1 1 1 1 3 5 7 9 12 11 8 7 7 6 7 6 6 8 9 9 9 10 10 9 10 13 15 14 14 11 8 7 6 6 6 6 6 6 6 5 4 4 4 5 5 5 5 5 4
0 1 3 1 1 1 1 2 3 3 5 6 8 9 8 9 9 8 7 8 5 6 6 8 10 12 12 11 12 12 14 15 12 9 8 7 6 6 5 5 4 4 4 5 4 4 5 5 5 5 4 5 5 4
1 4 1 1 1 1 1 4 4 5 6 8 8 6 7 8 8 8 8 7 5 7 11 9 12 13 10 12 13 11 12 10 8 8 6 6 6 5 5 4 4 4 4 4 4 4 4 5 7 7 8 7 6 6
3 2 0 0 1 2 3 4 6 7 9 8 8 8 7 7 8 6 6 5 7 7 8 10 8 12 13 13 13 9 8 7 6 6 6 6 5 4 4 5 5 4 4 4 4 5 4 5 7 7 9 8 8 8
2 2 1 0 2 4 5 5 6 10 8 6 6 6 7 7 6 6 6 5 5 6 7 8 10 11 12 9 8 8 8 8 8 7 5 4 4 4 4 5 4 5 5 5 6 6 6 6 7 7 8 8 8 8
1 1 1 1 1 5 6 7 4 8 11 8 6 7 7 7 6 6 6 6 7 7 9 10 9 8 8 8 7 7 7 7 7 7 6 6 4 4 5 5 5 5 6 5 6 7 6 6 6 7 8 8 7 7
1 1 1 2 3 3 5 6 7 8 8 8 6 6 8 7 7 7 7 6 7 10 10 7 7 7 6 6 6 6 5 5 6 6 6 6 4 4 4 4 4 6 6 5 6 8 8 7 6 6 7 8 9 9
2 0 3 2 5 5 7 4 6 6 7 7 7 6 10 11 10 8 6 8 8 7 7 7 6 6 6 6 6 6 5 5 5 6 6 5 5 6 5 5 5 5 5 4 4 5 6 7 7 7 7 7 7 8
1 2 4 3 7 9 9 5 8 8 10 9 9 10 10 11 8 5 10 7 7 6 6 6 6 6 6 5 4 4 5 5 6 6 5 5 5 5 4 5 4 4 5 4 3 4 5 7 7 5 5 6 6 7
1 4 7 9 7 11 7 9 11 10 11 11 12 10 10 9 7 9 10 8 7 6 6 6 5 5 5 5 5 5 5 5 5 5 5 5 5 5 4 5 5 4 4 3 4 4 4 5 6 5 6 6 6 6
10 11 11 14 9 8 9 10 10 11 10 10 10 11 11 9 11 10 9 8 6 5 6 6 6 6 6 5 5 5 4 5 5 5 5 5 5 5 6 5 4 4 4 4 4 4 4 4 4 4 5 5 6 6
13 12 8 8 9 10 9 10 10 10 9 10 11 10 11 11 10 11 9 7 7 6 5 5 5 5 6 4 5 5 5 5 5 6 5 4 4 5 5 6 5 5 4 4 4 4 4 4 4 3 4 5 8 5
13 12 8 5 10 8 9 8 9 12 10 11 10 10 12 12 12 9 6 5 6 5 4 5 5 4 5 4 4 4 3 3 4 4 4 4 4 4 4 5 5 4 3 3 3 3 5 5 5 5 4 4 3 4
9 8 10 11 10 11 10 11 10 10 9 7 8 10 11 11 10 6 5 3 3 3 3 3 2 3 3 4 3 3 2 2 3 3 3 3 3 2 2 3 3 8 4 4 3 3 4 4 4 4 4 4 3 3
10 9 7 10 10 11 11 10 8 7 5 6 9 10 8 6 4 4 4 2 2 3 5 5 4 3 2 2 2 2 3 3 4 5 6 6 6 4 3 3 3 3 3 4 10 6 3 3 4 4 3 3 2 2
9 7 10 9 10 11 9 7 8 7 7 7 7 7 7 6 4 3 3 3 5 6 5 5 5 4 4 4 4 3 3 4 4 5 6 7 6 5 5 5 4 3 3 3 4 5 9 5 4 3 4 5 8 8
7 8 9 11 10 8 8 7 7 7 8 8 7 9 8 6 5 5 5 6 6 6 6 6 6 5 6 6 6 6 6 6 6 6 6 6 6 6 6 5 4 3 3 3 3 4 4 4 5 5 5 7 7 9
8 9 9 10 11 9 7 9 10 9 9 8 9 7 7 7 7 7 7 7 7 7 7 6 7 7 7 6 6 6 7 6 7 7 8 8 8 7 7 5 4 3 3 3 3 5 7 6 9 7 6 6 6 6
11 9 10 10 14 12 9 10 13 11 11 14 9 8 8 8 8 7 6 6 7 7 7 6 6 7 7 7 7 7 8 7 8 9 8 9 9 9 7 6 5 6 6 7 7 7 7 8 8 7 7 7 7 6